[[{"header":{"parameterUnit":"m.s-1","parameterCategory":1,"la1":30.2991,"la2":30.254,"lo1":-89.0895,"lo2":-89.0444,"dx":0.0017,"dy":0.0017,"nx":28,"ny":28,"refTime":"2023-02-12T09:00:00:Z","depth":0,"parameterNumber":2,"parameterNumberName":"U-component_of_WINDS"},"data":[0,0,0,0,0,0,0,0,0,0,0,0,0,0,0,0,0,0,0,0,0,0,0,0,0,0,0,0,0,0,0,0,0,0,0,0,0,0,0,0,0,0,0,0,0,0,0,0,0,0,0,0,0,0,0,0,0,0,0.4602,0.4602,0,0.4606,0.4606,0.4606,0.4623,0.4624,0.4624,0.4625,0.4627,0.4627,0.4626,0,0,0,0,0,0,0,0,0,0,0,0,0,0.4611,0.4611,0.4602,0.4602,0.4603,0.4606,0.4606,0.4606,0.4623,0.4624,0.4624,0.4625,0.4627,0.4627,0.4626,0,0,0,0,0,0,0,0,0,0,0,0,0,0.461,0.4611,0.4602,0.4612,0.4613,0.4606,0.4606,0.4606,0.4623,0.4624,0.4624,0.4625,0.4627,0.4627,0.4626,0.461,0,0,0.4625,0.4624,0,0,0,0,0,0,0,0,0.461,0.461,0.461,0.4611,0.4612,0.4615,0.461,0.4607,0.4623,0.4619,0.4625,0.4625,0.4622,0.4622,0.4621,0.461,0.4611,0.4625,0.4624,0.4624,0.4624,0,0,0,0,0,0,0,0.461,0.461,0.4604,0.461,0.4611,0.4616,0.4616,0.4609,0.4617,0.4619,0.4621,0.4621,0.4623,0.4622,0.4622,0.4611,0.4625,0.4624,0.4624,0.4624,0.4586,0.4586,0,0,0,0,0,0,0.4609,0.461,0.4604,0.4604,0.4613,0.4615,0.4615,0.4613,0.4617,0.4618,0.462,0.4622,0.4622,0.4622,0.4622,0.4603,0.4624,0.4624,0.4623,0.4587,0.4586,0.4585,0,0,0,0,0,0,0.4609,0.4608,0.4603,0.4607,0.4607,0.4614,0.4611,0.4613,0.4612,0.4618,0.4619,0.4618,0.4623,0.4622,0.4613,0.4603,0.4623,0.4623,0.4588,0.4587,0.4586,0.4565,0,0,0,0,0,0,0.4609,0.4608,0.4602,0.4607,0.4607,0.4595,0.4611,0.4612,0.4611,0.4613,0.4616,0.4617,0.4623,0.4614,0.4612,0.4603,0.4623,0.4589,0.4587,0.4586,0.4567,0.4563,0.4561,0,0,0,0,0,0.461,0.4596,0.4602,0.4601,0.4599,0.4594,0.4594,0.4602,0.461,0.4604,0.4608,0.4617,0.4605,0.4612,0.4611,0.4601,0.4589,0.4588,0.4586,0.4568,0.4564,0.4561,0,0,0,0,0,0,0.459,0.4597,0.4603,0.4591,0.4592,0.4597,0.459,0.4597,0.4595,0.4597,0.4607,0.4607,0.4596,0.4598,0.4607,0.4586,0.4598,0.4597,0.4585,0.4581,0.4578,0.4578,0.4622,0,0,0,0,0,0.4585,0.458,0.4586,0.4575,0.4575,0.4582,0.458,0.4586,0.4587,0.4588,0.4591,0.4591,0.4587,0.4585,0.4582,0.4567,0.4568,0.456,0.4557,0.4555,0.4552,0.4544,0.4541,0.458,0.458,0.458,0,0,0.4573,0.4576,0.4573,0.4571,0.4573,0.4567,0.4582,0.4576,0.4572,0.4587,0.4578,0.458,0.4581,0.4569,0.4564,0.457,0.4542,0.4553,0.4551,0.455,0.4542,0.4539,0.4535,0.4579,0.4579,0.4579,0,0,0.4549,0.4551,0.4542,0.4543,0.4544,0.4549,0.4547,0.4551,0.4553,0.4544,0.4555,0.455,0.4544,0.4544,0.4543,0.4519,0.4527,0.4518,0.4502,0.4494,0.4491,0.4488,0.4479,0.4476,0.4516,0.4516,0.4516,0,0.4534,0.4526,0.4536,0.4529,0.4527,0.4541,0.4531,0.4532,0.4532,0.4531,0.4538,0.453,0.4532,0.4519,0.4514,0.4513,0.451,0.4517,0.4491,0.4488,0.4486,0.4477,0.4473,0.4515,0.4515,0.4515,0.4515,0,0.4508,0.4502,0.4494,0.4495,0.4493,0.4484,0.4492,0.4489,0.4495,0.4499,0.449,0.4493,0.449,0.4488,0.4494,0.4477,0.448,0.4489,0.4502,0.4481,0.4472,0.4469,0.4513,0.4514,0.4514,0.4514,0,0,0.447,0.4476,0.4473,0.4473,0.4476,0.4472,0.4464,0.4462,0.4459,0.4459,0.4452,0.4447,0.4455,0.4454,0.446,0.4453,0.4433,0.4463,0.4463,0.4456,0.4413,0.4406,0.4402,0.4439,0.4438,0.4438,0.4413,0,0.4446,0.4433,0.4442,0.4427,0.4422,0.4435,0.4428,0.4429,0.4433,0.4429,0.4433,0.4428,0.444,0.4439,0.4433,0.4437,0.4424,0.4439,0.4432,0.4432,0.443,0.4398,0.439,0.4366,0.441,0.4409,0.4409,0,0.4416,0.4415,0.44,0.4404,0.4402,0.4396,0.4394,0.4391,0.4392,0.4395,0.4394,0.4402,0.4394,0.4408,0.4397,0.4407,0.4404,0.4406,0.4405,0.4404,0.4418,0.4394,0.4359,0.4355,0.4404,0.4404,0.4405,0,0.439,0.4384,0.4375,0.4375,0.4379,0.4374,0.4376,0.4378,0.4376,0.4374,0.4373,0.4371,0.4369,0.4367,0.4375,0.4384,0.4363,0.4376,0.4364,0.4364,0.4358,0.4358,0.4321,0.4359,0.4359,0.4359,0.4359,0,0.4361,0.4351,0.4363,0.4356,0.4346,0.4355,0.4344,0.4347,0.4349,0.4344,0.4355,0.4349,0.4359,0.4355,0.436,0.435,0.435,0.4352,0.4353,0.435,0.435,0.4348,0.4349,0.4358,0.4358,0.4358,0.4358,0,0.4329,0.4336,0.4326,0.4332,0.4333,0.4324,0.4329,0.4323,0.4328,0.4321,0.4319,0.4327,0.4322,0.4329,0.4325,0.4329,0.4314,0.4319,0.4314,0.4315,0.4302,0.4303,0.4261,0.4255,0.4298,0.4297,0.4297,0,0.431,0.4303,0.4307,0.4304,0.4305,0.4301,0.4299,0.4308,0.4306,0.4307,0.4301,0.4297,0.4294,0.4286,0.4291,0.4288,0.4291,0.4277,0.4291,0.4288,0.429,0.429,0.4289,0.4274,0.4273,0.4273,0.4273,0,0.4275,0.4279,0.4276,0.4274,0.4271,0.427,0.427,0.4267,0.4277,0.4273,0.4269,0.4267,0.4263,0.4259,0.4257,0.4258,0.4267,0.4268,0.4265,0.4261,0.4258,0.4259,0.4305,0.4269,0.4269,0.427,0.427,0.427,0.4248,0.4242,0.4244,0.424,0.4241,0.4241,0.4235,0.424,0.4236,0.4233,0.4239,0.4233,0.4234,0.4233,0.4233,0.4228,0.4235,0.423,0.4229,0.4228,0.4225,0.426,0.4228,0.4228,0.4229,0.4229,0.4229,0,0.4213,0.4215,0.4212,0.4211,0.4208,0.4217,0.4217,0.4213,0.4208,0.4208,0.4206,0.42,0.4196,0.4201,0.4197,0.4193,0.4196,0.4191,0.4191,0.4191,0.422,0.4223,0.4188,0.4188,0.4188,0.4188,0.4188,0.4188,0.4194,0.4184,0.4189,0.4179,0.4181,0.4175,0.4174,0.4174,0.4174,0.4167,0.4164,0.4168,0.417,0.4167,0.4163,0.4165,0.4163,0.4156,0.4159,0.4185,0.4189,0.4193,0.4195,0.4156,0.4156,0.413,0.413,0.413]},{"header":{"parameterUnit":"m.s-1","parameterCategory":1,"la1":30.2991,"la2":30.254,"lo1":-89.0895,"lo2":-89.0444,"dx":0.0017,"dy":0.0017,"nx":28,"ny":28,"refTime":"2023-02-12T09:00:00:Z","depth":0,"parameterNumber":3,"parameterNumberName":"V-component_of_WINDS"},"data":[0,0,0,0,0,0,0,0,0,0,0,0,0,0,0,0,0,0,0,0,0,0,0,0,0,0,0,0,0,0,0,0,0,0,0,0,0,0,0,0,0,0,0,0,0,0,0,0,0,0,0,0,0,0,0,0,0,0,-1.5511,-1.5513,0,-1.5631,-1.5633,-1.5634,-1.5639,-1.5637,-1.5636,-1.5634,-1.5758,-1.5763,-1.5768,0,0,0,0,0,0,0,0,0,0,0,0,0,-1.5287,-1.5291,-1.5511,-1.5513,-1.5514,-1.5631,-1.5633,-1.5634,-1.5639,-1.5637,-1.5635,-1.5634,-1.5757,-1.5762,-1.5768,0,0,0,0,0,0,0,0,0,0,0,0,0,-1.5394,-1.5293,-1.5511,-1.5531,-1.5533,-1.5631,-1.5633,-1.5635,-1.5639,-1.5637,-1.5635,-1.5633,-1.5755,-1.5762,-1.5769,-1.5855,0,0,-1.579,-1.5793,0,0,0,0,0,0,0,0,-1.5388,-1.5402,-1.5526,-1.5529,-1.5533,-1.5618,-1.5599,-1.5709,-1.564,-1.5599,-1.5634,-1.5632,-1.5713,-1.5724,-1.5751,-1.5861,-1.5866,-1.5791,-1.5795,-1.5798,-1.58,0,0,0,0,0,0,0,-1.538,-1.5397,-1.5559,-1.5528,-1.5532,-1.5534,-1.5547,-1.562,-1.5667,-1.5603,-1.5603,-1.5617,-1.5715,-1.5744,-1.5754,-1.5868,-1.579,-1.5797,-1.5801,-1.5804,-1.6056,-1.6059,0,0,0,0,0,0,-1.5369,-1.5391,-1.5555,-1.5562,-1.5453,-1.554,-1.5554,-1.5593,-1.5666,-1.5675,-1.5619,-1.5617,-1.5733,-1.5746,-1.5758,-1.5866,-1.5798,-1.5804,-1.5808,-1.6054,-1.6057,-1.606,0,0,0,0,0,0,-1.5364,-1.5383,-1.555,-1.5477,-1.5498,-1.5546,-1.5589,-1.5596,-1.5626,-1.5679,-1.5687,-1.564,-1.5732,-1.5749,-1.5831,-1.587,-1.5807,-1.5814,-1.6051,-1.6055,-1.6058,-1.608,0,0,0,0,0,0,-1.5357,-1.5382,-1.5415,-1.5477,-1.5502,-1.5621,-1.5592,-1.56,-1.5638,-1.5636,-1.5701,-1.571,-1.5732,-1.5821,-1.5838,-1.5878,-1.5819,-1.6048,-1.6053,-1.6057,-1.6076,-1.6084,-1.6091,0,0,0,0,0,-1.5349,-1.5416,-1.5416,-1.5436,-1.5544,-1.5623,-1.5637,-1.5661,-1.5641,-1.5675,-1.5709,-1.5708,-1.5863,-1.5829,-1.5849,-1.5892,-1.6045,-1.6051,-1.6057,-1.6073,-1.6083,-1.6091,0,0,0,0,0,0,-1.5356,-1.5424,-1.5426,-1.5514,-1.5563,-1.5623,-1.5667,-1.567,-1.5726,-1.5722,-1.575,-1.5764,-1.5847,-1.5877,-1.5839,-1.598,-1.5952,-1.5962,-1.5957,-1.5967,-1.5974,-1.5966,-1.5825,0,0,0,0,0,-1.5368,-1.5426,-1.5482,-1.5555,-1.5579,-1.5619,-1.5654,-1.5668,-1.572,-1.5741,-1.5781,-1.5831,-1.5892,-1.5931,-1.5989,-1.608,-1.6095,-1.6119,-1.6127,-1.6132,-1.6141,-1.6193,-1.6205,-1.6078,-1.6078,-1.6078,0,0,-1.5393,-1.5437,-1.5472,-1.5558,-1.5597,-1.5657,-1.5636,-1.57,-1.5746,-1.575,-1.5832,-1.5863,-1.5921,-1.6009,-1.6049,-1.6037,-1.6179,-1.614,-1.6144,-1.615,-1.62,-1.6212,-1.6223,-1.6082,-1.6081,-1.6081,0,0,-1.547,-1.5508,-1.5574,-1.5614,-1.5674,-1.57,-1.5715,-1.5776,-1.5797,-1.5879,-1.5884,-1.5938,-1.6041,-1.6083,-1.6117,-1.621,-1.6212,-1.6229,-1.6268,-1.6318,-1.6328,-1.6338,-1.6372,-1.6384,-1.6237,-1.6237,-1.6237,0,-1.5493,-1.5584,-1.5607,-1.5672,-1.571,-1.5717,-1.5784,-1.5822,-1.5898,-1.5924,-1.5908,-1.6039,-1.6078,-1.6176,-1.6199,-1.6226,-1.6246,-1.6222,-1.6325,-1.6334,-1.6343,-1.6377,-1.639,-1.6239,-1.6238,-1.6238,-1.6238,0,-1.5611,-1.5674,-1.5719,-1.5793,-1.5836,-1.5901,-1.5935,-1.5976,-1.5987,-1.6014,-1.6098,-1.6146,-1.6214,-1.6238,-1.6249,-1.6339,-1.6329,-1.6319,-1.6292,-1.6357,-1.6389,-1.6402,-1.6241,-1.624,-1.624,-1.6239,0,0,-1.5696,-1.5782,-1.5798,-1.5832,-1.5899,-1.5948,-1.6014,-1.6082,-1.6117,-1.6169,-1.6226,-1.6313,-1.6304,-1.6344,-1.6359,-1.6403,-1.6476,-1.6388,-1.6389,-1.6404,-1.658,-1.6588,-1.6603,-1.6477,-1.6479,-1.6481,-1.6575,0,-1.5781,-1.5899,-1.5922,-1.6025,-1.6084,-1.6092,-1.615,-1.6197,-1.6225,-1.628,-1.631,-1.6372,-1.6355,-1.6379,-1.6423,-1.6458,-1.6512,-1.6451,-1.6532,-1.6534,-1.6518,-1.6619,-1.6628,-1.6715,-1.6588,-1.659,-1.6591,0,-1.5897,-1.5952,-1.6061,-1.6121,-1.6146,-1.6198,-1.6262,-1.6313,-1.6368,-1.6385,-1.6429,-1.644,-1.651,-1.6478,-1.6576,-1.6534,-1.6568,-1.659,-1.6594,-1.6604,-1.6568,-1.6633,-1.6743,-1.6756,-1.6611,-1.661,-1.6608,0,-1.595,-1.6051,-1.613,-1.6158,-1.623,-1.6266,-1.6298,-1.635,-1.6389,-1.6445,-1.6471,-1.6534,-1.6569,-1.6618,-1.6646,-1.662,-1.6743,-1.6713,-1.676,-1.676,-1.6787,-1.6785,-1.6905,-1.6806,-1.6806,-1.6805,-1.6805,0,-1.6044,-1.611,-1.6155,-1.6203,-1.6279,-1.6305,-1.6379,-1.641,-1.6456,-1.6512,-1.6521,-1.6573,-1.6606,-1.6663,-1.6685,-1.6764,-1.6779,-1.6796,-1.6801,-1.6796,-1.6794,-1.682,-1.6815,-1.6809,-1.6808,-1.6807,-1.6807,0,-1.6116,-1.6149,-1.6235,-1.6296,-1.6313,-1.6366,-1.6418,-1.6466,-1.6493,-1.6563,-1.6581,-1.6625,-1.6692,-1.6725,-1.6808,-1.6823,-1.6913,-1.6913,-1.6895,-1.6897,-1.6943,-1.6939,-1.7086,-1.7107,-1.6992,-1.6993,-1.6994,0,-1.6175,-1.6227,-1.6293,-1.6331,-1.6363,-1.6423,-1.6464,-1.6491,-1.6533,-1.6599,-1.664,-1.6707,-1.6763,-1.687,-1.691,-1.6974,-1.6978,-1.7025,-1.6987,-1.6981,-1.6981,-1.6978,-1.6984,-1.7032,-1.7033,-1.7034,-1.7034,0,-1.6276,-1.629,-1.6347,-1.6411,-1.6459,-1.651,-1.656,-1.6591,-1.6627,-1.6673,-1.6742,-1.6785,-1.6871,-1.6939,-1.7006,-1.7039,-1.7044,-1.7046,-1.706,-1.7056,-1.7044,-1.7053,-1.6915,-1.7042,-1.7042,-1.7041,-1.7041,-1.704,-1.6345,-1.6392,-1.6446,-1.651,-1.6551,-1.6598,-1.6647,-1.668,-1.6738,-1.681,-1.6823,-1.6897,-1.6951,-1.7041,-1.7077,-1.7135,-1.7125,-1.7146,-1.7151,-1.7156,-1.716,-1.7033,-1.7147,-1.7147,-1.7147,-1.7147,-1.7147,0,-1.6448,-1.6484,-1.6542,-1.6613,-1.6663,-1.6662,-1.6719,-1.6761,-1.6826,-1.6876,-1.6931,-1.7011,-1.7077,-1.7121,-1.7188,-1.7227,-1.7231,-1.7244,-1.7242,-1.725,-1.7165,-1.7146,-1.7239,-1.7239,-1.7239,-1.7239,-1.7239,-1.7239,-1.6508,-1.6588,-1.6608,-1.6708,-1.6743,-1.6815,-1.6848,-1.6892,-1.6932,-1.7021,-1.7076,-1.7104,-1.7153,-1.7223,-1.7284,-1.7295,-1.7321,-1.7334,-1.7346,-1.7265,-1.7256,-1.7246,-1.7229,-1.7339,-1.7339,-1.7426,-1.7427,-1.7428]}]]